COSMOS 2251 DEB, 33917

Orbit data source: Space-Track

COSMOS 2251 DEB, 33917 is space debris in LEO originally from a launch on Wed, 16 Jun 1993 UTC launched from the Plesetsk Missile And Space Complex (PKMTR). The debris from Iridium 33, an American commercial communications satellite, has been tracked extensively since its accidental collision with the defunct Russian satellite Cosmos 2251 in 2009. This event, occurring at high speed in low Earth orbit (LEO), generated thousands of pieces of space debris, significantly increasing the risk of further collisions. The Iridium 33 debris cloud has impacted space traffic management and orbital debris mitigation strategies, making it a subject of ongoing study in space situational awareness.

Loading next visibility...
Identifier
33917, 1993-036DW
Orbit
LEO
Country
Flag of CISCIS
Related business
Manufacturer
Unknown
Mission
Spacecraft
Bus & Motor
Unknown
Mass
Unknown
Launch date (UTC)
1993-06-16 (33 years ago)
Launch vehicle
Unknown
Launch site
Plesetsk Missile And Space Complex (PKMTR)
Object type
Payload
Rocket body
Debris
Shape & HBR
Unknown shape, 0.1 m
Radar Cross Section
Small (<0.1 m²)

Expand to show TLE details & history
Last TLE update: 8 hours ago

TLE from 8 hours ago
0 COSMOS 2251 DEB
1 33917U 93036DW  25354.02285494  .00000745  00000-0  60049-3 0  9995
2 33917  74.1072 110.4516 0331286 209.8297 148.3576 13.69373358838331
Epoch: 2025-12-20T00:32Z
TLE epoch observation values (Epoch: 2025-12-20T00:32:54.666Z)
Latitude
-0.00002°
Longitude
13.3682°
Altitude
1,214.667 km
Speed
7.143 km/s
True Right ascension
07h 21m 48s
True Declination
0° 00' 00"
Sunlit
Object was in full shadow at epoch
Visualization orbit readout
Latitude
Unknown
Longitude
Unknown
Altitude
Unknown
Speed
Unknown
Apparent Right ascension
Unknown
Apparent Declination
Unknown
Sunlit
N/A
Visualization observer readout
Local Sidereal Time
07:46:01
Azimuth
Unknown
Elevation
Unknown
Doppler factor
Unknown
Orbital elements
Apogee altitude
1,243.921 km
Perigee altitude
755.099 km
Semi-major axis
7,377.647 km
Eccentricity
0.03313
Inclination
74.1072°
RAAN
110.4516°
Arg. of periapsis
209.8297°
True anomaly
150.28091°
Mean anomaly
148.3576°
Eccentric anomaly
149.32594°
Mean motion
3.42505 °/min
Orbital period
105.11 mins
BSTAR
0.00060049
Loading maneuver chart data...
Computing Atmospheric mass density...

Documentation

Showing up to 5 results
|